sat.trackr.live / text

‹ back to catalog

QIANFAN-141

NORAD 69087 · 2026-104Q

PAYLOAD ACTIVE UNKNOWN

§ Identity

Operator
Country
PRC
Launch date
2026-05-12
Launch site
TAISC
Launch vehicle
Mass (kg)
RCS (m²)

External: N2YO · Heavens-Above · Gunter

§ Orbital elements

Epoch: 2026-05-25T04:17:46.729248Z

Period
101.27 min
Inclination
88.9863°
Eccentricity
0.0002619
Mean motion
14.21988799 rev/d
Perigee alt
816.7 km
Apogee alt
820.5 km
Semi-major
7,196.8 km
B*
3.2401e-5
RAAN
344.2461°
Arg perigee
166.0915°
Mean anomaly
194.0349°
Rev number
182

§ Raw data

QIANFAN-1411 69087U 26104Q   26145.17901307  .00000086  00000+0  32401-4 0  99962 69087  88.9863 344.2461 0002619 166.0915 194.0349 14.21988799  1823

JSON: /api/v1/satellites/69087 · /tle

For live sub-satellite position, see the globe view (requires WebGL).

§ Visibility from observer

Set your observer location to see the next 7 days of passes ≥ 10°. The values pass through the URL so the page stays shareable.

No JS? Fill the form by hand. The geolocation button needs JavaScript.